Location: Center Berlin
(42.6609°N, 73.3687°W)
Time: 20:09:54
(UTC+00:00)

Cosmos 2322 Rocket - Pass Details

Date: 10 September 2024
Orbit: 832 x 850 km, 71.0° (Epoch: 13 October)

Event Time Altitude Azimuth Distance (km) Brightness Sun altitude
Rises 23:32:13 0° 222° (SW) 3,398 5.8 -4.7°
Reaches altitude 10° 23:34:46 10° 228° (SW) 2,468 5.2 -5.1°
Maximum altitude 23:40:11 45° 301° (WNW) 1,147 3.6 -6.1°
Drops below altitude 10° 23:45:38 10° 13° (NNE) 2,485 4.7 -7.1°
Sets 23:48:13 0° 20° (NNE) 3,424 5.3 -7.5°
